Location: Carnoy
(49.9849°N, 2.7558°E)
Time: 06:24:07
(UTC+00:00)

Cosmos 1340 Rocket - Pass Details

Date: 24 January 2020
Orbit: 530 x 558 km, 81.2° (Epoch: 24 February)

Event Time Altitude Azimuth Distance (km) Brightness Sun altitude
Rises 17:44:30 0° 341° (NNW) 2,700 6.4 -12.0°
Reaches altitude 10° 17:46:45 10° 333° (NNW) 1,808 5.6 -12.4°
Maximum altitude 17:50:26 38° 266° (W) 844 4.4 -12.9°
Drops below altitude 10° 17:54:08 10° 197° (SSW) 1,808 5.9 -13.5°
Sets 17:56:23 0° 190° (S) 2,701 6.7 -13.9°
